Hourly Data Report for October 30, 2014

All times are specified in Local Standard Time (LST). Add 1 hour to adjust for Daylight Saving Time where and when it is observed.

PENTICTON A
BRITISH COLUMBIA

49°27'45.000" N
119°36'08.000" W
344.40 m
1126146
71889
YYF

Download Data

Hourly Data (October 2014)
Hourly Data Report for October 30, 2014
Temp Definition
°C
Dew Point Temp Definition
°C
Rel Hum Definition
%
Wind Dir Definition
10's deg

Wind Spd Definition
km/h
Visibility Definition
km
Stn Press Definition
kPa
Hmdx Definition


Wind Chill Definition


Weather Definition


TIME
00:00 Legend Double Dagger 11.0 6.8 75 14 9 24.1 98.01     LegendNANA
01:00 Legend Double Dagger 11.0 6.6 74 21 4 24.1 98.01     Cloudy
02:00 Legend Double Dagger 10.9 6.5 74 21 8 24.1 98.00     LegendNANA
03:00 Legend Double Dagger 10.4 6.6 77 21 5 24.1 97.98     LegendNANA
04:00 Legend Double Dagger 9.3 6.8 84 36 3 24.1 97.91     Cloudy
05:00 Legend Double Dagger 9.1 6.7 85 35 5 24.1 97.88     LegendNANA
06:00 Legend Double Dagger 9.2 6.8 85 36 1 24.1 97.82     LegendNANA
07:00 Legend Double Dagger 9.1 7.1 87 34 4 24.1 97.82     Cloudy
08:00 Legend Double Dagger 9.8 7.4 85 36 3 24.1 97.78     LegendNANA
09:00 Legend Double Dagger 10.3 7.6 83 30 4 24.1 97.72     LegendNANA
10:00 Legend Double Dagger 11.0 7.7 80 7 3 24.1 97.65     Mostly Cloudy
11:00 Legend Double Dagger 10.8 7.5 80 15 5 24.1 97.59     LegendNANA
12:00 Legend Double Dagger 10.9 7.6 80 32 3 24.1 97.52     LegendNANA
13:00 Legend Double Dagger 12.4 7.3 71 17 26 24.1 97.39     Cloudy
14:00 Legend Double Dagger 12.2 8.1 76 18 23 24.1 97.28     LegendNANA
15:00 Legend Double Dagger 12.2 8.1 76 15 23 24.1 97.21     LegendNANA
16:00 Legend Double Dagger 12.0 8.3 78 17 23 24.1 97.13     Cloudy
17:00 Legend Double Dagger 11.3 8.7 84 18 23 19.3 97.10     Rain Showers
18:00 Legend Double Dagger 11.1 8.9 86 16 21 16.1 97.08     Rain Showers
19:00 Legend Double Dagger 10.9 9.2 89 17 23 12.9 97.03     Rain Showers
20:00 Legend Double Dagger 10.6 9.2 91 16 21 16.1 96.95     Rain Showers
21:00 Legend Double Dagger 10.7 9.3 91 15 28 19.3 96.87     LegendNANA
22:00 Legend Double Dagger 11.1 9.0 87 17 33 19.3 96.80     Cloudy
23:00 Legend Double Dagger 11.4 8.8 84 17 17 19.3 96.75     LegendNANA

Notes on Data Quality.

Legend

  • E = Estimated
  • M = Missing
  • NA = Not Available
  • ‡ = Partner data that is not subject to review by the National Climate Archives
Date modified: